Location: Ch�risy
(50.2331°N, 2.9131°E)
Time: 20:12:49
(UTC+00:00)

SAR-Lupe-1 - Pass Details

Date: 17 January 2021
Orbit: 481 x 485 km, 98.2° (Epoch: 26 February)

Event Time Altitude Azimuth Distance (km) Brightness Sun altitude
Exits shadow 18:24:17 62° 114° (ESE) 549 4.0 -19.7°
Drops below altitude 10° 18:27:42 10° 184° (S) 1,657 6.9 -20.2°
Sets 18:29:46 0° 188° (S) 2,532 7.9 -20.6°
